Location: ???? ?????????
(31.1304°N, 31.7111°E)
Time: 18:06:27
(UTC+00:00)

Cosmos 1076 Rocket - Pass Details

Date: 29 October 2020
Orbit: 589 x 613 km, 82.5° (Epoch: 30 November)

Event Time Altitude Azimuth Distance (km) Brightness Sun altitude
Rises 16:54:28 0° 350° (N) 2,826 7.0 -23.5°
Reaches altitude 10° 16:56:41 10° 348° (NNW) 1,923 6.2 -24.0°
Maximum altitude 17:00:54 68° 266° (W) 640 3.7 -24.9°
Drops below altitude 10° 17:05:06 10° 183° (S) 1,921 6.1 -25.8°
Sets 17:07:19 0° 181° (S) 2,823 7.0 -26.3°
